Home   Weather   Kralendijk   Past weeks

Flag for Caribbean Netherlands Past Weather in Kralendijk, Bonaire, Caribbean Netherlands — Yesterday and Last 2 Weeks

Now
84 °F

Broken clouds.


Feels Like: 92 °F
Forecast: N/A
Wind: 12 mph from East

Location: Flamingo Airport - Bonaire

Current Time: Jan 24, 2017 at 3:47:52 pm

Latest Report: Jan 24, 2017 at 2:55 pm


Visibility: N/A

Pressure: 29.89 "Hg

Humidity: 74%

Dew Point: 75 °F

Location of KralendijkLocation

Past Weather in Kralendijk — Graph

°F

Kralendijk Temperature Yesterday

Maximum temperature yesterday: 84 °F (at 10:55 am)
Minimum temperature yesterday: 72 °F (at 6:55 am)
Average temperature yesterday: 79 °F

High & Low Weather Summary for the Past Weeks

 TemperatureHumidityPressure
High86 °F (Jan 24, 12:55 pm)100% (Jan 11, 4:55 am)30.01 "Hg (Jan 11, 4:55 am)
Low72 °F (Jan 11, 4:55 am)51% (Jan 13, 9:55 am)29.86 "Hg (Jan 10, 2:55 pm)
Average78 °F79%29.93 "Hg
* Reported Jan 9 2:55 pm — Jan 24 2:55 pm, Kralendijk, Weather by CustomWeather, © 2017

Note: Actual official high and low records may vary slightly from our data, if they occured in-between our weather recording intervals... More about our weather records

Advertising

Kralendijk Weather History for the Previous 24 Hours

Scroll right to see more
 ConditionsComfort  
Time TempWeatherWind HumidityBarometerVisibility
2:55 pm
Tue, Jan 24
84 °FBroken clouds.12 mph74%29.89 "HgN/A
1:55 pm86 °FBroken clouds.9 mph70%29.92 "HgN/A
12:55 pm86 °FScattered clouds.10 mph70%29.92 "HgN/A
11:55 am84 °FBroken clouds.10 mph70%29.95 "HgN/A
10:55 am84 °FScattered clouds.8 mph74%29.98 "HgN/A
9:55 am84 °FPassing clouds.9 mph74%29.98 "HgN/A
8:55 am82 °FBroken clouds.7 mph79%29.95 "HgN/A
7:55 am81 °FPassing clouds.9 mph79%29.92 "HgN/A
6:55 am79 °FPassing clouds.12 mph84%29.89 "HgN/A
5:55 am77 °FWarm.10 mph89%29.89 "HgN/A
4:55 am77 °FWarm.7 mph89%29.89 "HgN/A
3:55 am77 °FPassing clouds.5 mph89%29.89 "HgN/A
2:55 am77 °FPassing clouds.6 mph89%29.89 "HgN/A
1:55 am75 °FPassing clouds.2 mph94%29.92 "HgN/A
12:55 am77 °FWarm.7 mph89%29.92 "HgN/A
11:55 pm
Mon, Jan 23
77 °FWarm.10 mph89%29.92 "HgN/A
10:55 pm79 °FPassing clouds.9 mph84%29.92 "HgN/A
9:55 pm77 °FPassing clouds.8 mph89%29.92 "HgN/A
8:55 pm77 °FPassing clouds.9 mph89%29.92 "HgN/A
7:55 pm77 °FClear.7 mph83%29.89 "Hg10 mi
6:55 pm79 °FClear.7 mph84%29.89 "Hg10 mi
5:55 pm81 °FSunny.10 mph74%29.89 "Hg10 mi
4:55 pm82 °FScattered clouds.9 mph70%29.86 "HgN/A
3:55 pm82 °FScattered clouds.9 mph70%29.86 "HgN/A
Weather by CustomWeather, © 2017

See weather overviewHow to use our weather pages